This demonstration page uses our WeatherBlox Daily Observations layout. Learn more.

Left ArrowRight Arrow

38.88101, -77.10428

Hourly Observations for July 25, 2016

Temp ( °F °C ) Dew Point ( °F °C ) Humidity (%) Winds ( mph kmh ) Pressure ( in mb ) Visibility ( mi km ) Precip ( " mm )
12:14 am 00:14 Mostly Cloudy 86 30 73 23 66 66 SSE 7 11 29.97 1015 10 16.0934 0 0
12:29 am 00:29 Mostly Cloudy with Thunderstorms 85 29.4 74 23.3 70 70 SSW 7 11 29.97 1015 10 16.0934 0 0.0254
12:52 am 00:52 Partly Cloudy 85 29.4 76 24.4 75 75 SSE 5 7 29.96 1015 10 16.0934 0 0.0254
1:52 am 01:52 Mostly Cloudy 84 28.9 77 25 80 80 SE 3 6 29.96 1015 10 16.0934 0 0
2:52 am 02:52 Mostly Cloudy 84 28.9 79 26.1 85 85 SSE 5 7 29.94 1014 9 14.48406 0 0
3:52 am 03:52 Cloudy 82 27.8 77 25 85 85 NNE 3 6 29.96 1014 10 16.0934 0 0
4:52 am 04:52 Mostly Cloudy 82 27.8 78 25.6 88 88 SE 3 6 29.95 1014 10 16.0934 0 0
5:52 am 05:52 Mostly Cloudy 82 27.8 77 25 85 85 SSW 5 7 29.95 1014 10 16.0934 0 0
6:52 am 06:52 Mostly Cloudy 83 28.3 77 25 82 82 SW 3 6 29.97 1015 10 16.0934 0 0
7:52 am 07:52 Mostly Cloudy 85 29.4 76 24.4 75 75 SW 3 6 29.97 1015 10 16.0934 0 0
8:52 am 08:52 Mostly Cloudy 88 31.1 75 23.9 66 66 S 7 11 29.96 1015 10 16.0934 0 0
9:52 am 09:52 Mostly Cloudy 90 32.2 76 24.4 63 63 SSE 7 11 29.96 1015 10 16.0934 0 0
10:52 am 10:52 Mostly Cloudy 92 33.3 78 25.6 64 64 S 9 15 29.97 1015 10 16.0934 0 0
11:52 am 11:52 Mostly Cloudy 94 34.4 78 25.6 60 60 S 10 17 29.95 1014 10 16.0934 0 0
12:52 pm 12:52 Mostly Cloudy 95 35 76 24.4 54 54 SSE 13 20 29.93 1014 10 16.0934 0 0
1:52 pm 13:52 Mostly Cloudy 97 36.1 77 25 53 53 S 14 22 29.9 1013 10 16.0934 0 0
2:52 pm 14:52 Mostly Cloudy 98 36.7 76 24.4 49 49 S 13 20 29.88 1012 10 16.0934 0 0
3:52 pm 15:52 Mostly Cloudy 99 37.2 74 23.3 45 45 S 15 24 29.85 1011 10 16.0934 0 0
4:52 pm 16:52 Mostly Cloudy 96 35.6 70 21.1 43 43 S 14 22 29.84 1010 10 16.0934 0 0
5:52 pm 17:52 Mostly Cloudy 96 35.6 69 20.6 41 41 SW 18 30 29.86 1011 10 16.0934 0 0
6:52 pm 18:52 Mostly Cloudy 94 34.4 71 21.7 48 48 SW 13 20 29.86 1011 10 16.0934 0 0
7:52 pm 19:52 Mostly Cloudy 93 33.9 71 21.7 49 49 SW 9 15 29.86 1011 10 16.0934 0 0
8:52 pm 20:52 Mostly Cloudy 89 31.7 77 25 68 68 S 7 11 29.88 1012 10 16.0934 0 0
9:52 pm 21:52 Mostly Cloudy 88 31.1 77 25 70 70 S 7 11 29.89 1012 10 16.0934 0 0
10:31 pm 22:31 Mostly Cloudy with Thunderstorms 90 32.2 75 23.9 62 62 NNW 12 19 29.91 1013 10 16.0934 0 0
10:52 pm 22:52 Mostly Cloudy with Thunderstorms 88 31.1 73 22.8 61 61 S 6 9 29.9 1013 10 16.0934 0 0
11:52 pm 23:52 Partly Cloudy 85 29.4 73 22.8 68 68 E 12 19 29.9 1013 10 16.0934 0 0

Powered by AerisWeather